Time,TemperatureF,DewpointF,PressureIn,WindDirection,WindDirectionDegrees,WindSpeedMPH,WindSpeedGustMPH,Humidity,HourlyPrecipIn,Conditions,Clouds,dailyrainin,SoftwareType,DateUTC
2013-01-30 00:07:00,49.8,49.0,29.37,ENE,65,1.0,-999.0,98,-99.99,,,0.00,weatherlink.com 1.10,2013-01-30 05:07:00,
2013-01-30 00:22:00,48.9,48.0,29.36,West,270,3.0,-999.0,98,-99.99,,,0.00,weatherlink.com 1.10,2013-01-30 05:22:00,
2013-01-30 00:37:00,48.6,48.0,29.37,West,275,5.0,-999.0,98,-99.99,,,0.00,weatherlink.com 1.10,2013-01-30 05:37:00,
2013-01-30 00:52:00,48.1,48.0,29.38,West,266,6.0,-999.0,98,-99.99,,,0.01,weatherlink.com 1.10,2013-01-30 05:52:00,
2013-01-30 01:07:00,48.2,48.0,29.38,West,263,6.0,-999.0,98,-99.99,,,0.02,weatherlink.com 1.10,2013-01-30 06:07:00,
2013-01-30 01:22:00,47.5,47.0,29.38,West,263,5.0,-999.0,98,-99.99,,,0.04,weatherlink.com 1.10,2013-01-30 06:22:00,
2013-01-30 01:37:00,47.3,47.0,29.36,West,263,4.0,-999.0,98,-99.99,,,0.06,weatherlink.com 1.10,2013-01-30 06:37:00,
2013-01-30 01:52:00,47.2,47.0,29.35,West,263,3.0,-999.0,98,-99.99,,,0.10,weatherlink.com 1.10,2013-01-30 06:52:00,
2013-01-30 02:07:00,47.0,47.0,29.34,West,263,0.0,-999.0,98,-99.99,,,0.12,weatherlink.com 1.10,2013-01-30 07:07:00,
2013-01-30 02:22:00,46.4,46.0,29.34,West,263,0.0,-999.0,98,-99.99,,,0.14,weatherlink.com 1.10,2013-01-30 07:22:00,
2013-01-30 02:37:00,45.8,45.0,29.33,West,263,0.0,-999.0,98,-99.99,,,0.16,weatherlink.com 1.10,2013-01-30 07:37:00,
2013-01-30 02:52:00,45.2,45.0,29.32,West,263,0.0,-999.0,98,-99.99,,,0.17,weatherlink.com 1.10,2013-01-30 07:52:00,
2013-01-30 03:07:00,44.8,44.0,29.32,West,263,0.0,-999.0,98,-99.99,,,0.18,weatherlink.com 1.10,2013-01-30 08:07:00,
2013-01-30 03:22:00,44.7,44.0,29.30,West,263,0.0,-999.0,98,-99.99,,,0.19,weatherlink.com 1.10,2013-01-30 08:22:00,
2013-01-30 03:37:00,44.5,44.0,29.29,West,263,0.0,-999.0,98,-99.99,,,0.20,weatherlink.com 1.10,2013-01-30 08:37:00,
2013-01-30 03:52:00,44.4,44.0,29.31,West,263,5.0,-999.0,98,-99.99,,,0.21,weatherlink.com 1.10,2013-01-30 08:52:00,
2013-01-30 04:07:00,45.6,45.0,29.31,SW,236,1.0,-999.0,98,-99.99,,,0.23,weatherlink.com 1.10,2013-01-30 09:07:00,
2013-01-30 04:22:00,45.1,45.0,29.32,SW,236,4.0,-999.0,98,-99.99,,,0.24,weatherlink.com 1.10,2013-01-30 09:22:00,
2013-01-30 04:37:00,45.5,45.0,29.32,WSW,240,6.0,-999.0,98,-99.99,,,0.25,weatherlink.com 1.10,2013-01-30 09:37:00,
2013-01-30 04:52:00,45.1,45.0,29.33,NW,306,5.0,-999.0,98,-99.99,,,0.25,weatherlink.com 1.10,2013-01-30 09:52:00,
2013-01-30 05:07:00,41.7,41.0,29.32,NNW,328,11.0,-999.0,98,-99.99,,,0.26,weatherlink.com 1.10,2013-01-30 10:07:00,
2013-01-30 05:22:00,40.0,40.0,29.33,NW,320,6.0,-999.0,98,-99.99,,,0.26,weatherlink.com 1.10,2013-01-30 10:22:00,
2013-01-30 05:37:00,39.5,39.0,29.32,NNW,333,5.0,-999.0,98,-99.99,,,0.26,weatherlink.com 1.10,2013-01-30 10:37:00,
2013-01-30 05:52:00,39.3,39.0,29.29,NNW,344,4.0,-999.0,98,-99.99,,,0.26,weatherlink.com 1.10,2013-01-30 10:52:00,
2013-01-30 06:07:00,39.1,39.0,29.28,North,355,1.0,-999.0,98,-99.99,,,0.26,weatherlink.com 1.10,2013-01-30 11:07:00,
2013-01-30 06:22:00,39.3,39.0,29.27,North,355,2.0,-999.0,98,-99.99,,,0.26,weatherlink.com 1.10,2013-01-30 11:22:00,
2013-01-30 06:37:00,39.4,39.0,29.25,NE,51,0.0,-999.0,98,-99.99,,,0.26,weatherlink.com 1.10,2013-01-30 11:37:00,
2013-01-30 06:52:00,39.6,39.0,29.29,NE,51,1.0,-999.0,98,-99.99,,,0.26,weatherlink.com 1.10,2013-01-30 11:52:00,
2013-01-30 07:07:00,39.6,39.0,29.31,West,267,3.0,-999.0,98,-99.99,,,0.26,weatherlink.com 1.10,2013-01-30 12:07:00,
2013-01-30 07:22:00,39.6,39.0,29.28,WNW,288,5.0,-999.0,98,-99.99,,,0.26,weatherlink.com 1.10,2013-01-30 12:22:00,
2013-01-30 07:37:00,38.5,38.0,29.27,NNW,344,12.0,-999.0,98,-99.99,,,0.26,weatherlink.com 1.10,2013-01-30 12:37:00,
2013-01-30 07:52:00,37.4,37.0,29.27,NNW,334,14.0,-999.0,98,-99.99,,,0.26,weatherlink.com 1.10,2013-01-30 12:52:00,
2013-01-30 08:07:00,36.3,36.0,29.28,NNW,345,12.0,-999.0,98,-99.99,,,0.27,weatherlink.com 1.10,2013-01-30 13:07:00,
2013-01-30 08:22:00,36.2,36.0,29.28,North,9,8.0,-999.0,98,-99.99,,,0.27,weatherlink.com 1.10,2013-01-30 13:22:00,
2013-01-30 08:37:00,36.3,36.0,29.29,NNE,19,7.0,-999.0,98,-99.99,,,0.27,weatherlink.com 1.10,2013-01-30 13:37:00,
2013-01-30 08:52:00,36.2,36.0,29.28,NNE,31,6.0,-999.0,98,-99.99,,,0.28,weatherlink.com 1.10,2013-01-30 13:52:00,
2013-01-30 09:07:00,36.0,36.0,29.29,NE,34,4.0,-999.0,98,-99.99,,,0.28,weatherlink.com 1.10,2013-01-30 14:07:00,
2013-01-30 09:22:00,35.9,35.0,29.30,NE,50,6.0,-999.0,98,-99.99,,,0.29,weatherlink.com 1.10,2013-01-30 14:22:00,
2013-01-30 09:37:00,35.8,35.0,29.28,NE,51,4.0,-999.0,98,-99.99,,,0.29,weatherlink.com 1.10,2013-01-30 14:37:00,
2013-01-30 09:52:00,35.7,35.0,29.27,NE,50,6.0,-999.0,98,-99.99,,,0.29,weatherlink.com 1.10,2013-01-30 14:52:00,
2013-01-30 10:07:00,35.6,35.0,29.27,ENE,63,5.0,-999.0,98,-99.99,,,0.29,weatherlink.com 1.10,2013-01-30 15:07:00,
2013-01-30 10:22:00,35.5,35.0,29.27,ENE,63,5.0,-999.0,98,-99.99,,,0.29,weatherlink.com 1.10,2013-01-30 15:22:00,
2013-01-30 10:37:00,35.7,35.0,29.27,ENE,73,6.0,-999.0,98,-99.99,,,0.29,weatherlink.com 1.10,2013-01-30 15:37:00,
2013-01-30 10:52:00,35.6,35.0,29.25,ENE,76,5.0,-999.0,98,-99.99,,,0.30,weatherlink.com 1.10,2013-01-30 15:52:00,
2013-01-30 11:07:00,35.6,35.0,29.25,East,84,7.0,-999.0,98,-99.99,,,0.30,weatherlink.com 1.10,2013-01-30 16:07:00,
2013-01-30 11:22:00,35.7,35.0,29.23,East,80,5.0,-999.0,98,-99.99,,,0.30,weatherlink.com 1.10,2013-01-30 16:22:00,
2013-01-30 11:37:00,35.6,35.0,29.24,East,89,7.0,-999.0,98,-99.99,,,0.30,weatherlink.com 1.10,2013-01-30 16:37:00,
2013-01-30 11:52:00,35.8,35.0,29.20,East,81,5.0,-999.0,98,-99.99,,,0.31,weatherlink.com 1.10,2013-01-30 16:52:00,
2013-01-30 12:07:00,35.9,35.0,29.21,East,90,7.0,-999.0,98,-99.99,,,0.31,weatherlink.com 1.10,2013-01-30 17:07:00,
2013-01-30 12:22:00,36.5,36.0,29.20,ESE,105,8.0,-999.0,98,-99.99,,,0.31,weatherlink.com 1.10,2013-01-30 17:22:00,
2013-01-30 12:37:00,36.7,36.0,29.20,East,96,6.0,-999.0,98,-99.99,,,0.32,weatherlink.com 1.10,2013-01-30 17:37:00,
2013-01-30 12:52:00,37.1,37.0,29.18,East,99,7.0,-999.0,98,-99.99,,,0.32,weatherlink.com 1.10,2013-01-30 17:52:00,
2013-01-30 13:07:00,37.5,37.0,29.16,East,97,7.0,-999.0,98,-99.99,,,0.33,weatherlink.com 1.10,2013-01-30 18:07:00,
2013-01-30 13:22:00,37.8,37.0,29.15,ESE,105,7.0,-999.0,98,-99.99,,,0.33,weatherlink.com 1.10,2013-01-30 18:22:00,
2013-01-30 13:37:00,37.9,37.0,29.15,ESE,111,5.0,-999.0,98,-99.99,,,0.33,weatherlink.com 1.10,2013-01-30 18:37:00,
2013-01-30 13:52:00,38.0,38.0,29.13,ESE,111,5.0,-999.0,98,-99.99,,,0.34,weatherlink.com 1.10,2013-01-30 18:52:00,
2013-01-30 14:07:00,38.4,38.0,29.12,ESE,111,6.0,-999.0,98,-99.99,,,0.34,weatherlink.com 1.10,2013-01-30 19:07:00,
2013-01-30 14:22:00,38.7,38.0,29.12,ESE,119,6.0,-999.0,98,-99.99,,,0.35,weatherlink.com 1.10,2013-01-30 19:22:00,
2013-01-30 14:37:00,39.6,39.0,29.11,SE,136,2.0,-999.0,98,-99.99,,,0.35,weatherlink.com 1.10,2013-01-30 19:37:00,
2013-01-30 14:52:00,41.7,41.0,29.11,SSW,193,4.0,-999.0,98,-99.99,,,0.35,weatherlink.com 1.10,2013-01-30 19:52:00,
2013-01-30 15:07:00,43.3,43.0,29.10,SW,222,8.0,-999.0,98,-99.99,,,0.35,weatherlink.com 1.10,2013-01-30 20:07:00,
2013-01-30 15:22:00,42.4,42.0,29.11,SW,225,11.0,-999.0,98,-99.99,,,0.35,weatherlink.com 1.10,2013-01-30 20:22:00,
2013-01-30 15:37:00,41.0,41.0,29.11,SW,232,12.0,-999.0,98,-99.99,,,0.35,weatherlink.com 1.10,2013-01-30 20:37:00,
2013-01-30 15:52:00,40.5,40.0,29.11,SSW,212,10.0,-999.0,98,-99.99,,,0.35,weatherlink.com 1.10,2013-01-30 20:52:00,
2013-01-30 16:07:00,40.1,40.0,29.10,SW,229,12.0,-999.0,98,-99.99,,,0.35,weatherlink.com 1.10,2013-01-30 21:07:00,
2013-01-30 16:22:00,39.5,39.0,29.11,SW,227,10.0,-999.0,98,-99.99,,,0.35,weatherlink.com 1.10,2013-01-30 21:22:00,
2013-01-30 16:37:00,38.6,38.0,29.11,WSW,247,10.0,-999.0,98,-99.99,,,0.35,weatherlink.com 1.10,2013-01-30 21:37:00,
2013-01-30 16:52:00,38.3,38.0,29.11,SW,236,12.0,-999.0,98,-99.99,,,0.35,weatherlink.com 1.10,2013-01-30 21:52:00,
2013-01-30 17:07:00,37.1,37.0,29.11,SW,232,15.0,-999.0,98,-99.99,,,0.35,weatherlink.com 1.10,2013-01-30 22:07:00,
2013-01-30 17:22:00,36.2,36.0,29.12,WSW,256,12.0,-999.0,98,-99.99,,,0.35,weatherlink.com 1.10,2013-01-30 22:22:00,
2013-01-30 17:37:00,35.5,35.0,29.12,WSW,252,12.0,-999.0,98,-99.99,,,0.35,weatherlink.com 1.10,2013-01-30 22:37:00,
2013-01-30 17:52:00,35.4,35.0,29.14,WSW,250,9.0,-999.0,98,-99.99,,,0.35,weatherlink.com 1.10,2013-01-30 22:52:00,
2013-01-30 18:07:00,34.6,34.0,29.16,WNW,300,15.0,-999.0,97,-99.99,,,0.35,weatherlink.com 1.10,2013-01-30 23:07:00,
2013-01-30 18:22:00,33.0,32.0,29.15,WNW,296,9.0,-999.0,96,-99.99,,,0.35,weatherlink.com 1.10,2013-01-30 23:22:00,
2013-01-30 18:37:00,32.1,31.0,29.13,NW,322,13.0,-999.0,96,-99.99,,,0.35,weatherlink.com 1.10,2013-01-30 23:37:00,
2013-01-30 18:52:00,31.9,31.0,29.13,NW,319,17.0,-999.0,95,-99.99,,,0.35,weatherlink.com 1.10,2013-01-30 23:52:00,
2013-01-30 19:07:00,31.8,31.0,29.15,NW,319,14.0,-999.0,95,-99.99,,,0.35,weatherlink.com 1.10,2013-01-31 00:07:00,
2013-01-30 19:22:00,31.6,30.0,29.17,NW,319,13.0,-999.0,93,-99.99,,,0.35,weatherlink.com 1.10,2013-01-31 00:22:00,
2013-01-30 19:37:00,31.5,30.0,29.18,NW,319,10.0,-999.0,93,-99.99,,,0.35,weatherlink.com 1.10,2013-01-31 00:37:00,
2013-01-30 19:52:00,31.0,29.0,29.20,NW,319,15.0,-999.0,93,-99.99,,,0.35,weatherlink.com 1.10,2013-01-31 00:52:00,
2013-01-30 20:07:00,30.5,29.0,29.21,NW,319,14.0,-999.0,92,-99.99,,,0.35,weatherlink.com 1.10,2013-01-31 01:07:00,
2013-01-30 20:22:00,30.0,28.0,29.22,NW,319,17.0,-999.0,93,-99.99,,,0.35,weatherlink.com 1.10,2013-01-31 01:22:00,
2013-01-30 20:37:00,29.4,28.0,29.22,NW,319,17.0,-999.0,94,-99.99,,,0.35,weatherlink.com 1.10,2013-01-31 01:37:00,
2013-01-30 20:52:00,28.7,27.0,29.23,NW,319,10.0,-999.0,93,-99.99,,,0.35,weatherlink.com 1.10,2013-01-31 01:52:00,
2013-01-30 21:07:00,27.9,26.0,29.24,NW,319,22.0,-999.0,92,-99.99,,,0.35,weatherlink.com 1.10,2013-01-31 02:07:00,
2013-01-30 21:22:00,27.4,25.0,29.25,NW,319,10.0,-999.0,91,-99.99,,,0.35,weatherlink.com 1.10,2013-01-31 02:22:00,
2013-01-30 21:37:00,26.6,24.0,29.26,NW,319,12.0,-999.0,91,-99.99,,,0.35,weatherlink.com 1.10,2013-01-31 02:37:00,
2013-01-30 21:52:00,26.0,24.0,29.27,NW,319,20.0,-999.0,91,-99.99,,,0.35,weatherlink.com 1.10,2013-01-31 02:52:00,
2013-01-30 22:07:00,25.5,24.0,29.28,NW,319,19.0,-999.0,92,-99.99,,,0.35,weatherlink.com 1.10,2013-01-31 03:07:00,
2013-01-30 22:22:00,24.9,23.0,29.29,NW,319,22.0,-999.0,92,-99.99,,,0.35,weatherlink.com 1.10,2013-01-31 03:22:00,
2013-01-30 22:39:00,24.7,23.0,29.31,NW,319,14.0,-999.0,92,-99.99,,,0.35,weatherlink.com 1.10,2013-01-31 03:39:00,
2013-01-30 22:52:00,24.3,22.0,29.31,NW,319,12.0,-999.0,92,-99.99,,,0.35,weatherlink.com 1.10,2013-01-31 03:52:00,
2013-01-30 23:07:00,23.6,21.0,29.32,NW,319,16.0,-999.0,90,-99.99,,,0.35,weatherlink.com 1.10,2013-01-31 04:07:00,
2013-01-30 23:22:00,23.3,21.0,29.34,NW,319,18.0,-999.0,90,-99.99,,,0.35,weatherlink.com 1.10,2013-01-31 04:22:00,
2013-01-30 23:37:00,23.1,21.0,29.35,NW,319,13.0,-999.0,91,-99.99,,,0.35,weatherlink.com 1.10,2013-01-31 04:37:00,
2013-01-30 23:52:00,23.1,21.0,29.36,NW,319,10.0,-999.0,91,-99.99,,,0.35,weatherlink.com 1.10,2013-01-31 04:52:00,